Weather History for Price, UT

Change the Weather History Date:

Saturday, November 3, 2012

  Actual Average Record
Temperature  
Mean Temperature 48 °F -  
Max Temperature 63 °F 48 °F 69 °F (1976)
Min Temperature 34 °F 28 °F 18 °F (2002)
Degree Days  
Heating Degree Days 17    
Moisture  
Dew Point 20 °F    
Average Humidity 35    
Maximum Humidity 52    
Minimum Humidity 18    
Precipitation  
Precipitation 0.00 in - - ()
Sea Level Pressure  
Sea Level Pressure 30.18 in    
Wind  
Wind Speed 5 mph (NE)    
Max Wind Speed 10 mph    
Max Gust Speed -    
Visibility 10 miles    
Events      
Averages and records for this station are not official NWS values.
T = Trace of Precipitation, MM = Missing Value Source: NWS Daily Summary

Daily Weather History Graph

Daily Weather History Graph

Search for Another Location

Airport:

Trip Planner

Search our weather history database for the weather conditions in past years. The results will help you decide how hot, cold, wet, or windy it might be!

Date:

Astronomy

Nov. 03, 2012 Rise Set
Actual Time 7:54 AM MDT 6:18 PM MDT
Civil Twilight 7:26 AM MDT 6:46 PM MDT
Nautical Twilight 6:54 AM MDT 7:18 PM MDT
Astronomical Twilight 6:22 AM MDT 7:49 PM MDT
Moon 10:03 PM MDT (11/3) 12:00 PM MDT (11/3)
Length of Visible Light 11h 20m
Length of Day
10h 24m
Waning Gibbous, 80% of the Moon is Illuminated
Nov 3
Waning Gibbous
Nov 6
Last Quarter
Nov 13
New
Nov 20
First Quarter
Nov 28
Full

Hourly Weather History & Observations

Time (MDT) Temp. Windchill Dew Point Humidity Pressure Visibility Wind Dir Wind Speed Gust Speed Precip Events Conditions
12:53 AM 42.1 °F 39.2 °F 19.0 °F 40% 30.08 in 10.0 mi North 4.6 mph - N/A   Clear
1:53 AM 41.0 °F 36.4 °F 19.9 °F 43% 30.09 in 10.0 mi NNE 6.9 mph - N/A   Clear
2:53 AM 39.9 °F 35.1 °F 19.9 °F 45% 30.09 in 10.0 mi NNE 6.9 mph - N/A   Clear
3:53 AM 37.0 °F 33.3 °F 19.0 °F 48% 30.11 in 10.0 mi ENE 4.6 mph - N/A   Clear
4:53 AM 37.0 °F 32.4 °F 19.0 °F 48% 30.11 in 10.0 mi North 5.8 mph - N/A   Clear
5:53 AM 36.0 °F - 19.0 °F 50% 30.14 in 10.0 mi Calm Calm - N/A   Clear
6:53 AM 34.0 °F 31.0 °F 18.0 °F 52% 30.19 in 10.0 mi NNE 3.5 mph - N/A   Clear
7:53 AM 34.0 °F 31.0 °F 18.0 °F 52% 30.22 in 10.0 mi NE 3.5 mph - N/A   Clear
8:53 AM 43.0 °F 41.3 °F 21.0 °F 42% 30.22 in 10.0 mi ENE 3.5 mph - N/A   Clear
9:53 AM 48.9 °F - 21.0 °F 33% 30.21 in 10.0 mi Calm Calm - N/A   Clear
10:53 AM 51.1 °F - 21.9 °F 32% 30.22 in 10.0 mi SE 5.8 mph - N/A   Clear
11:53 AM 55.0 °F - 21.9 °F 28% 30.21 in 10.0 mi SSE 4.6 mph - N/A   Clear
12:53 PM 60.1 °F - 21.9 °F 23% 30.18 in 10.0 mi SSW 6.9 mph - N/A   Clear
1:53 PM 62.1 °F - 19.0 °F 19% 30.15 in 10.0 mi South 5.8 mph - N/A   Clear
2:53 PM 62.1 °F - 19.0 °F 19% 30.14 in 10.0 mi SSW 6.9 mph - N/A   Clear
3:53 PM 62.1 °F - 18.0 °F 18% 30.14 in 10.0 mi SSE 6.9 mph - N/A   Clear
4:53 PM 62.1 °F - 18.0 °F 18% 30.14 in 10.0 mi South 4.6 mph - N/A   Clear
5:53 PM 60.1 °F - 17.1 °F 19% 30.17 in 10.0 mi SSW 3.5 mph - N/A   Clear
6:53 PM 50.0 °F - 16.0 °F 26% 30.24 in 10.0 mi North 4.6 mph - N/A   Clear
7:53 PM 48.0 °F - 19.0 °F 32% 30.27 in 10.0 mi North 10.4 mph - N/A   Clear
8:53 PM 46.9 °F - 21.0 °F 36% 30.25 in 10.0 mi NNE 4.6 mph - N/A   Clear
9:53 PM 46.0 °F 41.4 °F 21.0 °F 37% 30.25 in 10.0 mi North 9.2 mph - N/A   Clear
10:53 PM 44.1 °F 38.6 °F 21.0 °F 40% 30.25 in 10.0 mi NNE 10.4 mph - N/A   Clear
11:53 PM 48.9 °F - 21.9 °F 35% 30.22 in 10.0 mi Calm Calm - N/A   Clear